TimeCST,TemperatureF,Dew PointF,Humidity,Sea Level PressureIn,VisibilityMPH,Wind Direction,Wind SpeedMPH,Gust SpeedMPH,PrecipitationIn,Events,Conditions,WindDirDegrees,DateUTC
12:53 AM,34.0,21.0,59,29.93,10.0,North,8.1,-,N/A,,Clear,360,2012-11-25 06:53:00
1:53 AM,34.0,21.0,59,29.92,10.0,NE,3.5,-,N/A,,Clear,50,2012-11-25 07:53:00
2:53 AM,36.0,23.0,59,29.95,10.0,Calm,Calm,-,N/A,,Clear,0,2012-11-25 08:53:00
3:53 AM,32.0,21.9,66,29.94,10.0,NNW,6.9,-,N/A,,Clear,340,2012-11-25 09:53:00
4:53 AM,33.1,23.0,66,29.96,10.0,WNW,6.9,-,N/A,,Clear,300,2012-11-25 10:53:00
5:53 AM,32.0,24.1,73,29.97,10.0,NNW,9.2,-,N/A,,Clear,340,2012-11-25 11:53:00
6:53 AM,33.1,25.0,72,29.99,10.0,Calm,Calm,-,N/A,,Clear,0,2012-11-25 12:53:00
7:53 AM,35.1,27.0,72,30.01,10.0,North,10.4,-,N/A,,Clear,350,2012-11-25 13:53:00
8:53 AM,37.0,28.9,73,30.02,10.0,ENE,3.5,-,N/A,,Overcast,60,2012-11-25 14:53:00
9:53 AM,42.1,30.9,65,30.04,10.0,NNE,9.2,-,N/A,,Overcast,30,2012-11-25 15:53:00
10:53 AM,43.0,30.0,60,30.03,10.0,NNE,12.7,-,N/A,,Clear,30,2012-11-25 16:53:00
11:53 AM,45.0,30.0,56,30.02,10.0,NNE,9.2,-,N/A,,Clear,30,2012-11-25 17:53:00
12:53 PM,46.9,28.9,50,30.00,10.0,NE,9.2,-,N/A,,Clear,40,2012-11-25 18:53:00
1:53 PM,48.0,28.0,46,29.98,10.0,NE,11.5,-,N/A,,Clear,40,2012-11-25 19:53:00
2:53 PM,48.0,25.0,41,29.97,10.0,NE,11.5,-,N/A,,Clear,50,2012-11-25 20:53:00
3:53 PM,46.0,21.9,39,29.98,10.0,NE,11.5,-,N/A,,Clear,50,2012-11-25 21:53:00
4:53 PM,42.1,19.0,40,30.00,10.0,ENE,10.4,-,N/A,,Clear,60,2012-11-25 22:53:00
5:53 PM,34.0,21.0,59,30.03,10.0,NE,6.9,-,N/A,,Clear,50,2012-11-25 23:53:00
6:53 PM,34.0,23.0,64,30.06,10.0,NE,6.9,-,N/A,,Clear,50,2012-11-26 00:53:00
7:53 PM,34.0,23.0,64,30.07,10.0,NE,8.1,-,N/A,,Clear,40,2012-11-26 01:53:00
8:53 PM,33.1,23.0,66,30.09,10.0,ENE,4.6,-,N/A,,Clear,60,2012-11-26 02:53:00
9:53 PM,33.1,24.1,70,30.10,10.0,ENE,8.1,-,N/A,,Clear,60,2012-11-26 03:53:00
10:53 PM,30.9,24.1,76,30.12,10.0,NE,9.2,-,N/A,,Clear,50,2012-11-26 04:53:00
11:53 PM,30.0,24.1,79,30.14,10.0,NE,9.2,-,N/A,,Partly Cloudy,50,2012-11-26 05:53:00